Location: Condor
(52.3263°N, 114.5541°W)
Time: 21:49:36
(UTC+00:00)

Oscar 19 - Pass Details

Date: 15 December 2023
Orbit: 771 x 789 km, 98.9° (Epoch: 04 March)

Event Time Altitude Azimuth Distance (km) Brightness Sun altitude
Rises 11:33:49 0° 23° (NNE) 3,283 14.2 -36.3°
Reaches altitude 10° 11:36:29 10° 35° (NE) 2,353 13.5 -35.9°
Maximum altitude 11:40:54 28° 94° (E) 1,457 12.5 -35.2°
Drops below altitude 10° 11:45:18 10° 152° (SSE) 2,346 13.3 -34.6°
Sets 11:47:56 0° 164° (SSE) 3,272 14.0 -34.2°
